Find Starlink 5151

NORAD ID: 54066 Int'l Des: 2022-136 Owner: SPXS Country: US Constellation: starlink operational
LEOCIRCULAR

Live Position

Loading 3D Globe...

About Starlink 5151

Description loading...

Upcoming Passes

Passes for default location (London). Set your location on the main map for personalized predictions.

Altitude History

Loading altitude history...

Two-Line Element Set

1 54066U 22136R 26121.27203253 .00000235 00000-0 32852-4 0 9995
2 54066 53.2164 107.9643 0001269 81.9856 278.1280 15.08836763194783
Epoch: May 1, 2026 • Age: 8 hours

Current Status

Altitude 555.4 km
Velocity 7.58 km/s
Sub-Earth Point -44.26°S, 12.59°W
Launch Date Oct 20, 2022
Age 3.5 years
Type internet

Technical Details

Classification Payload
Mass 305.00 kg
Dry Mass 290.00 kg
Total Mass 305.00 kg
Length 0.20 m
Diameter 2.80 m
Span 9.00 m
Shape Box + pan
Manufacturer SPXS
Bus Type Starlink
Phase Status In Orbit
Owner/State SPXS/US

Most Searched